Find Starlink 35205

NORAD ID: 65679 Int'l Des: 2025-212 Owner: SPXS Country: US Constellation: starlink operational
LEOCIRCULAR

リアルタイム位置

3D地球を読み込み中...

Starlink 35205について

説明を読み込み中...

次回通過

Passes for default location (London). Set your location on the main map for personalized predictions.

高度履歴

Loading altitude history...

軌道要素

1 65679U 25212D 26107.18143941 .00008684 00000-0 30495-3 0 9992
2 65679 53.1581 167.1101 0001034 78.7759 281.3358 15.30203295 33080
Epoch: Apr 17, 2026 • Age: 16 hours

現在のステータス

高度 482.2 km
速度 7.62 km/s
衛星直下点 -23.65°S, 0.61°E
打ち上げ日 Sep 21, 2025
運用期間 0.5 years
タイプ internet

技術仕様

分類 Payload
質量 575.00 kg
乾燥質量 530.00 kg
総質量 575.00 kg
長さ 0.30 m
直径 4.10 m
スパン 29.00 m
形状 Box + pan
製造者 SPXS
バスタイプ Starlink V2MO
フェーズステータス In Orbit
所有者/国 SPXS/US

Most Searched